Tracking 29069 objects as of 18-Jul-2024
HD Live streaming from Space Station
objects crossing your sky now

FLOCK 4X 17

Track FLOCK 4X 17 now!
10-day predictions


NORAD ID: 51035
Int'l Code: 2022-002BD
Perigee: 421.5 km
Apogee: 426.2 km
Inclination: 97.4 °
Period: 92.9 minutes
Semi major axis: 6794 km
RCS: Unknown
Launch date: January 13, 2022
Source: United States (US)
Launch site: AIR FORCE EASTERN TEST RANGE (AFETR)
Your satellite tracking list
Your tracking list is empty




NASA's NSSDC Master Catalog

Two Line Element Set (TLE):
1 51035U 22002BD  24199.94359081  .00052951  00000-0  94090-3 0  9991
2 51035  97.3919 276.8857 0003445 241.7682 118.3221 15.50016424139776
Source of the keplerian elements: AFSPC